Pellston, MI

12:58 AM EST on November 19, 2017 (GMT -0500)
Pellston Regional Airport Of Emmet County

Weather History for KPLN - June, 2012

Change the Weather History Date:

Friday, June 29, 2012

  Actual Average Record
Temperature  
Mean Temperature 72 °F -  
Max Temperature 84 °F 76 °F 95 °F (1971)
Min Temperature 59 °F 52 °F 34 °F (2007)
Cooling Degree Days 6    
Growing Degree Days 22 (Base 50)    
Moisture  
Dew Point 58 °F    
Average Humidity 70    
Maximum Humidity 100    
Minimum Humidity 33    
Precipitation  
Precipitation 0.00 in - - ()
Sea Level Pressure  
Sea Level Pressure 29.75 in    
Wind  
Wind Speed 4 mph (West)    
Max Wind Speed 18 mph    
Max Gust Speed 29 mph    
Visibility 8 miles    
Events      
Averages and records for this station are not official NWS values.
T = Trace of Precipitation, MM = Missing Value Source: NWS Daily Summary

Daily Weather History Graph

Daily Weather History Graph

Search for Another Location

Airport or City:

Trip Planner

Search our weather history database for the weather conditions in past years. The results will help you decide how hot, cold, wet, or windy it might be!

Date:

Astronomy

Jun. 29, 2012 Rise Set
Actual Time 5:53 AM EDT 9:32 PM EDT
Civil Twilight 5:15 AM EDT 10:09 PM EDT
Nautical Twilight 4:24 AM EDT 11:00 PM EDT
Astronomical Twilight 3:16 AM EDT 12:08 AM EDT
Moon 5:11 PM EDT (6/29) 2:11 AM EDT (6/29)
Length of Visible Light 16h 54m
Length of Day
15h 38m
Waxing Gibbous, 77% of the Moon is Illuminated
Jun 29
Waxing Gibbous
Jul 3
Full
Jul 10
Last Quarter
Jul 19
New
Jul 26
First Quarter

Hourly Weather History & Observations

Time (EDT) Temp. Heat Index Dew Point Humidity Pressure Visibility Wind Dir Wind Speed Gust Speed Precip Events Conditions
12:04 AM 64.4 °F - 64.4 °F 100% 29.77 in 6.0 mi Calm Calm - N/A   Clear
12:54 AM 64.0 °F - 63.0 °F 96% 29.76 in 2.5 mi Calm Calm - N/A   Clear
1:14 AM 62.6 °F - 62.6 °F 100% 29.77 in 1.2 mi Calm Calm - N/A   Clear
1:20 AM 60.8 °F - 60.8 °F 100% 29.77 in 3.0 mi Calm Calm - N/A   Clear
1:30 AM 62.6 °F - 62.6 °F 100% 29.77 in 1.8 mi Calm Calm - N/A   Clear
1:54 AM 59.0 °F - 59.0 °F 100% 29.76 in 0.8 mi Calm Calm - N/A   Mist
2:05 AM 60.8 °F - 60.8 °F 100% 29.76 in 1.2 mi Calm Calm - N/A   Partly Cloudy
2:13 AM 60.8 °F - 60.8 °F 100% 29.76 in 0.8 mi Calm Calm - N/A   Mist
2:25 AM 59.0 °F - 59.0 °F 100% 29.76 in 1.0 mi Calm Calm - N/A   Clear
2:31 AM 60.8 °F - 60.8 °F 100% 29.76 in 3.0 mi Calm Calm - N/A   Clear
2:54 AM 62.1 °F - 60.1 °F 93% 29.75 in 10.0 mi West 5.8 mph - N/A   Clear
3:54 AM 66.0 °F - 60.1 °F 81% 29.75 in 10.0 mi WSW 6.9 mph - N/A   Clear
4:54 AM 66.0 °F - 59.0 °F 78% 29.75 in 10.0 mi WSW 5.8 mph - N/A   Clear
5:54 AM 64.9 °F - 57.9 °F 78% 29.76 in 10.0 mi WSW 6.9 mph - N/A   Clear
6:54 AM 68.0 °F - 57.0 °F 68% 29.77 in 10.0 mi West 5.8 mph - N/A   Clear
7:54 AM 71.1 °F - 57.0 °F 61% 29.78 in 10.0 mi West 8.1 mph - N/A   Clear
8:54 AM 73.9 °F - 57.0 °F 55% 29.77 in 10.0 mi West 6.9 mph - N/A   Clear
9:54 AM 77.0 °F - 55.0 °F 47% 29.77 in 10.0 mi WNW 11.5 mph - N/A   Clear
10:54 AM 78.1 °F - 55.9 °F 46% 29.77 in 10.0 mi West 11.5 mph - N/A   Clear
11:54 AM 80.1 °F 80.1 °F 55.0 °F 42% 29.76 in 10.0 mi WNW 15.0 mph - N/A   Clear
12:54 PM 84.0 °F - 52.0 °F 33% 29.76 in 10.0 mi West 13.8 mph - N/A   Clear
1:54 PM 82.0 °F 81.4 °F 55.0 °F 39% 29.76 in 10.0 mi West 11.5 mph 18.4 mph N/A   Clear
2:54 PM 82.9 °F 81.9 °F 54.0 °F 37% 29.78 in 10.0 mi West 15.0 mph 21.9 mph N/A   Clear
3:54 PM 82.0 °F 81.2 °F 53.1 °F 37% 29.76 in 10.0 mi WSW 18.4 mph 26.5 mph N/A   Clear
4:54 PM 82.0 °F 81.2 °F 53.1 °F 37% 29.74 in 10.0 mi West 17.3 mph 28.8 mph N/A   Clear
5:54 PM 81.0 °F 80.7 °F 55.0 °F 41% 29.71 in 10.0 mi WSW 11.5 mph 20.7 mph N/A   Clear
6:54 PM 80.6 °F 80.5 °F 55.4 °F 42% 29.70 in 10.0 mi WSW 13.8 mph 19.6 mph N/A   Clear
7:54 PM 80.1 °F 80.6 °F 57.9 °F 47% 29.69 in 10.0 mi West 10.4 mph - N/A   Clear
8:54 PM 75.0 °F - 57.9 °F 55% 29.70 in 10.0 mi West 9.2 mph - N/A   Clear
9:54 PM 71.1 °F - 59.0 °F 66% 29.72 in 10.0 mi West 5.8 mph - N/A   Clear
10:54 PM 64.0 °F - 57.9 °F 80% 29.72 in 10.0 mi Calm Calm - N/A   Clear
11:54 PM 60.1 °F - 57.0 °F 90% 29.73 in 10.0 mi Calm Calm - N/A   Partly Cloudy